Tracking 30995 objects as of 5-Jul-2025
HD Live streaming from Space Station
objects crossing your sky now

POSAT 2

Track POSAT 2 now!
10-day predictions


NORAD ID: 63488
Int'l Code: 2025-009DR
Perigee: 557.1 km
Apogee: 565.5 km
Inclination: 97.5 °
Period: 95.7 minutes
Semi major axis: 6932 km
RCS: Unknown
Launch date: January 14, 2025
Source: Portugal (POR)
Launch site: AIR FORCE WESTERN TEST RANGE (AFWTR)
Your satellite tracking list
THORAD DELTA 1 DEB
Track 1 satellite(s)




NASA's NSSDC Master Catalog

Two Line Element Set (TLE):
1 63488U 25009DR  25186.51999333  .00005083  00000-0  37074-3 0  9999
2 63488  97.5197 264.7273 0006017 243.7776 116.2832 15.04130848 14394
Source of the keplerian elements: AFSPC